Other Public Products
Issued by NWS Grand Forks, ND

Home | Current Version | Previous Version | Graphics & Text | Print | Product List | Glossary On
Versions: 1 2 3 4 5 6 7 8 9 10 11 12 13 14 15 16 17 18 19 20 21 22 23 24 25 26 27 28 29 30 31 32 33 34 35 36 37 38 39 40 41 42 43 44 45 46 47 48 49 50
575
FPUS83 KFGF 220231
OPUFGF
PRAIRIE TO PINES WEATHER ROUNDUP
NATIONAL WEATHER SERVICE EASTERN NORTH DAKOTA/GRAND FORKS ND
900 PM CDT THU MAY 21 2015

 **SATELLITE DATA USED TO AUGMENT SKY COVER AT AUTOMATED STATIONS**
 *****  WEATHER ACROSS EASTERN NORTH DAKOTA  *****

CITY           SKY/WX    TMP DP  RH WIND       PRES   REMARKS
GRAND FORKS    CLEAR     58  40  51 N5        30.10S
GRAND FORKS AF CLEAR     60  37  43 NE5       30.11S
GRAND CITY NWS   N/A     55 N/A N/A N2          N/A
BUXTON           N/A     62  39  44 N2          N/A
DEVILS LAKE    CLEAR     63  30  29 NE3       30.11S
FARGO          CLEAR     59  43  55 NW8       30.10R
WAHPETON ARPT  CLEAR     59  32  36 N5        30.11S
$$

 *****  WEATHER ACROSS CENTRAL AND WESTERN NORTH DAKOTA  *****

CITY           SKY/WX    TMP DP  RH WIND       PRES   REMARKS
JAMESTOWN      CLEAR     61  43  51 NE8       30.10S
BISMARCK       MOCLDY    66  40  38 NE8       30.10R
MINOT          CLEAR     64  39  39 NE6       30.10R
MINOT AFB      CLEAR     68  35  29 NE7       30.09S
GARRISON         N/A     67  36  31 E6        30.10R
WILLISTON      CLEAR     67  33  28 E8        30.08R
DICKINSON      CLEAR     60  34  37 SE9       30.09S
HETTINGER      CLEAR     59  35  40 SE7       30.13S
$$

 *****  OTHER OBSERVATIONS NORTHEAST NORTH DAKOTA  *****

CITY           SKY/WX    TMP DP  RH WIND       PRES   REMARKS
WALHALLA       FAIR      61  36  39 CALM      30.11S
LANGDON        FAIR      57  34  41 E6        30.12S
CAVALIER       FAIR      63  36  36 CALM      30.11S
GRAFTON        FAIR      59  39  47 NE6       30.12S
CANDO          FAIR      61  30  31 NE5       30.12S
FORT TOTTEN      N/A     64  26  23 CALM      29.95S
ROLLA          FAIR      61  37  41 E5        30.13S
RUGBY          NOT AVBL
 ***** THE ABOVE OBSERVATIONS ARE NON NWS ARE NOT QUALITY
        CONTROLLED AND MAY MIS-REPORT RAIN FOR SNOW...
$$

 *****  OTHER OBSERVATIONS SOUTHEAST NORTH DAKOTA *****

CITY           SKY/WX    TMP DP  RH WIND       PRES   REMARKS
COOPERSTOWN    NOT AVBL
VALLEY CITY    FAIR      59  36  41 CALM      30.12R
OAKES            N/A     61  43  51 NE3       30.11R
GWINNER        NOT AVBL
SHEYENNE NWR     N/A     63  33  33 NE3       29.95S
BUFFALO        NOT AVBL
WYNDMERE         N/A     63  34  34 NE3         N/A
 ***** THE ABOVE OBSERVATIONS ARE NON NWS ARE NOT QUALITY
       CONTROLLED AND MAY MIS-REPORT RAIN FOR SNOW...
$$

  *****  WEATHER ACROSS NORTHERN MINNESOTA  *****

CITY           SKY/WX    TMP DP  RH WIND       PRES   REMARKS
FLAG ISLAND    CLEAR     57  39  51 CALM      30.08S
WARROAD        PTCLDY    52  41  66 CALM      30.11R
ROSEAU         MOCLDY    55  37  50 NW9       30.11R
HALLOCK        PTCLDY    61  34  36 NE3       30.11S
THF RVR FALLS  CLEAR     59  32  36 N6        30.11S
HALSTAD          N/A     58  32  38 N7          N/A
FOSSTON        CLEAR     54  34  47 CALM      30.11R
BAUDETTE       CLEAR     55  37  50 CALM      30.09R
WASKISH        CLEAR     55  36  47 CALM      30.09S
CROOKSTON      CLEAR     57  39  51 N6        30.12R
$$
  *****  WEATHER ACROSS CENTRAL AND WEST MINNESOTA  *****

CITY           SKY/WX    TMP DP  RH WIND       PRES   REMARKS
BEMIDJI        CLEAR     55  33  44 CALM      30.09R
PARK RAPIDS    CLEAR     62  30  29 N7        30.08R
WADENA         CLEAR     57  36  44 NW3       30.09R
DETROIT LAKES  CLEAR     57  36  44 NW6       30.12R
MOORHEAD       CLEAR     59  43  55 NW7       30.11S
FERGUS FALLS   CLEAR     59  36  41 NW7       30.11R
ELBOW LAKE     FAIR      60  39  46 NW7       30.10R
MORRIS MN      CLEAR     61  37  41 NW8       30.10R
STAPLES        CLEAR     61  30  31 CALM      30.09R
WHEATON        CLEAR     57  36  44 CALM      30.13R
$$
  *****  WEATHER ELSEWHERE ACROSS MINNESOTA  *****

CITY           SKY/WX    TMP DP  RH WIND       PRES   REMARKS
DULUTH         CLEAR     59  26  28 N7        30.04R
INTRNTL FALLS  CLEAR     52  30  43 NW5       30.07S
ELY            CLEAR     52  27  37 W3        30.07R
CLOQUET        CLEAR     57  25  28 CALM      30.05R
BRAINERD       CLEAR     58  32  37 N6        30.08R
HIBBING        CLEAR     55  26  32 N6        30.06R
ALEXANDRIA     CLEAR     59  36  42 NW6       30.10R
SAINT CLOUD    CLEAR     61  36  39 N5        30.06R
MINNEAPOLIS    CLEAR     65  31  28 NW6       30.05R
$$

  *****  WEATHER ACROSS SOUTH DAKOTA  *****

CITY           SKY/WX    TMP DP  RH WIND       PRES   REMARKS
SIOUX FALLS    PTCLDY    62  37  39 NW3       30.11R
BROOKINGS      CLEAR     63  36  36 NE5       30.13R
WATERTOWN      CLEAR     59  39  47 NE6       30.11R
HURON          MOCLDY    67  39  35 CALM      30.10R
SISSETON         N/A     60  33  36 E5        30.10R
ABERDEEN       CLEAR     67  41  38 NE3       30.10R
MITCHELL       CLEAR     67  37  33 W6        30.12S
PIERRE         CLEAR     63  35  35 S7        30.12R
MOBRIDGE       CLEAR     65  40  39 SW6       30.09R
RAPID CITY     MOCLDY    56  43  61 S8        30.13R
$$

  *****  SOME WEATHER IN NEARBY STATES *****

CITY           SKY/WX    TMP DP  RH WIND       PRES   REMARKS
GLASGOW MT     CLEAR     68  28  22 SE16      30.04S
GREAT FALLS MT PTCLDY    63  43  48 S9        29.93S
CHEYENNE WY    CLOUDY    48  43  82 SE14G23   30.11S
SCOTTSBLUFF NE CLOUDY    54  44  69 SE12      30.12R
OMAHA NE       PTCLDY    67  38  34 SW5       30.14S
DES MOINES IA  PTCLDY    65  40  39 W8        30.08S
DAVENPORT IA   CLEAR     63  41  44 SW9       30.03S
CHICAGO IL     CLEAR     62  37  39 SW7       30.01S
EAU CLAIRE WI  CLEAR     59  36  42 NW3       30.01R
LA CROSSE WI   CLEAR     64  43  46 W5        29.99R
$$

  *****  SOME NATIONAL WEATHER *****

CITY           SKY/WX    TMP DP  RH WIND       PRES   REMARKS
LA GUARDIA NY  CLOUDY    54  42  64 S7        29.91F
RALEIGH NC     PTCLDY    61  55  82 NE8       29.95R
ATLANTA GA     MOCLDY    63  51  65 NW13      30.05R
NEW ORLEANS LA CLOUDY    74  69  85 E7        30.04S
OKLAHOMA CITY  PTCLDY    59  48  67 E7        30.18R
ALBUQUERQUE NM CLOUDY    52  44  74 E30G38    30.03S
SALT LAKE CITY CLOUDY    60  47  61 N8        29.88S
LOS ANGELES CA PTCLDY    61  52  72 W13       29.95R
BOISE ID       PTSUNNY   70  45  40 E8        29.81R
SEATTLE WA     CLOUDY    75  53  46 W5        29.83S
$$

*** WEATHER ACROSS MANITOBA...SASKATCHEWAN AND ONTARIO ***
                ***ONTARIO***

CITY           SKY/WX    TMP DP  RH WIND       PRES   REMARKS
GERALDTON      CLEAR     37  19  48 NE9       30.09R
THUNDER BAY    CLEAR     45  36  70 NE8       30.05R
SIOUX LOOKOUT  CLEAR     45  23  42 CALM      30.08R
TORONTO        PTCLDY    59  32  36 W8        29.86R
BIG TROUT LK   CLEAR     32  23  69 VRB2      30.14S
PICKLE LAKE    CLEAR     41  19  42 NE6       30.10S
DRYDEN         CLEAR     52  23  32 NE7       30.08R
KENORA         PTCLDY    57  27  30 N3        30.09S
$$
                *** MANITOBA***

CITY           SKY/WX    TMP DP  RH WIND       PRES   REMARKS
BRANDON        PTCLDY    63  43  48 SW8       30.09S
DAUPHIN        CLOUDY    63  39  42 SE9       30.05R
ISLAND LAKE    PTCLDY    50  19  29 SE8       30.11S
PILOT MOUND      N/A     63  28  27 E3          N/A
THE PAS        PTCLDY    64  41  42 SE16      29.99S
THOMPSON       CLEAR     59  28  31 VRB3      30.04F
WINNIPEG       MOCLDY    59  41  51 NE5       30.11S
LYNN LAKE      CLEAR     66  34  30 SE7       29.95F
CHURCHILL      PTCLDY    43  34  70 S12       30.09S
GILLAM         CLEAR     50  23  34 E5        30.11F
$$
                ***SASKATCHEWAN***

CITY           SKY/WX    TMP DP  RH WIND       PRES   REMARKS
ESTEVAN        PTCLDY    64  39  39 SE8       30.10R
KINDERSLEY     CLEAR     72  27  18 S16       30.02R
LLOYDMINSTER   CLEAR     70  23  17 S10       29.99F
PRINCE ALBERT  CLEAR     72  30  21 W7        30.02S
REGINA         PTCLDY    70  32  24 S7        30.08R



USA.gov is the U.S. government's official web portal to all federal, state and local government web resources and services.